OKEAN-0
1 25860U 99039A 08024.00069475 .00000058 00000-0 16083-4 0 2714
2 25860 097.7403 021.0473 0001762 052.9676 307.1685 14.73498550458015
NOAA-16
1 26536U 00055A 08024.48757357 -.00000087 00000-0 -21652-4 0 7751
2 26536 099.1429 010.5821 0009806 273.2479 086.7569 14.12466931378345
NOAA-17
1 27453U 02032A 08024.44392051 .00000116 00000-0 69154-4 0 7737
2 27453 098.5542 093.1496 0012158 166.1366 194.0182 14.23943745290204
NOAA-18
1 28654U 05018A 08024.48045529 -.00000097 00000-0 -29277-4 0 2857
2 28654 098.8545 327.3019 0014634 006.4935 353.6430 14.11129343138067
HUBBLE
1 20580U 90037B 08023.86469684 .00000326 00000-0 12420-4 0 00667
2 20580 028.4677 191.0219 0003500 281.0769 078.9429 15.00330025773134
UARS
1 21701U 91063B 08024.22187912 .00003828 00000-0 65725-4 0 2742
2 21701 056.9762 073.2898 0081303 258.9448 100.2454 15.50346689900002
PO-34
1 25520U 98064B 08024.47809875 .00000309 00000-0 54631-5 0 9168
2 25520 028.4604 067.5402 0005742 150.5048 209.5873 15.17120664511166
ISS
1 25544U 98067A 08025.05477624 .00018228 00000-0 11137-3 0 7805
2 25544 051.6407 039.6016 0005471 327.5854 129.2027 15.77436134525782
OO-38
1 26063U 00004C 08024.00025666 -.00000025 00000-0 11860-4 0 1192
2 26063 100.2122 072.2791 0036572 258.4379 101.2685 14.35825738418738
UWE-1
1 28892U 05043C 08024.37041592 .00000102 00000-0 31113-4 0 9576
2 28892 098.1132 281.3405 0018152 139.4302 220.8227 14.59585777119470
CO-58
1 28895U 05043F 08024.27388202 -.00000212 00000-0 -34725-4 0 9318
2 28895 098.1169 281.5451 0018606 139.6755 220.5815 14.59626345119347
NCUBE2
1 28897U 05043H 08023.70683376 .00000127 00000-0 36219-4 0 4607
2 28897 098.1119 280.9290 0017800 143.1367 217.1064 14.59795888111543
FCAL
1 29667U 06055J 08024.90397894 .00029696 11751-4 63584-4 0 6964
2 29667 051.6333 003.3456 0010129 128.4981 231.6944 15.99757259 63344
FALCON
1 30776U 07006E 08024.22452531 .00000405 00000-0 32706-4 0 2336
2 30776 035.4350 312.5769 0001273 246.4307 113.6276 15.02861616 48326
MAST
1 31126U 07012K 08023.22253305 .00000058 00000-0 23784-4 0 2385
2 31126 098.0592 093.3698 0095812 064.5337 296.5776 14.53394447 40818
CAPE1
1 31130U 07012P 08024.68018317 .00000011 00000-0 13274-4 0 2194
2 31130 098.0609 094.1150 0103755 062.0165 299.1494 14.51924186 40758
